Wind_Speed
35 35 34 34 32 29 25 23 25 26 23 19 17 16 14 11 8 8 8 7 7 8 11 13 15 16 15 14 14 13 13 12 12 14 13 13 14 14 15 15 15 17 18 16 14 9 6 3 7 18 21 19
35 35 34 35 35 35 32 27 26 27 27 24 20 18 16 15 12 10 10 9 8 8 8 9 13 15 15 15 15 14 14 14 13 14 14 14 14 14 15 15 16 17 19 18 16 12 7 4 7 15 21 21
36 35 34 34 35 36 35 33 29 25 28 28 24 22 19 16 14 13 13 13 11 10 9 9 9 12 15 16 16 16 15 15 15 15 14 14 13 13 16 17 15 16 19 19 18 15 9 6 9 12 18 22
35 36 35 34 34 33 33 34 33 29 27 28 27 27 25 21 17 15 16 16 15 14 12 10 9 9 13 15 16 17 17 16 16 17 15 14 14 13 16 17 15 16 19 21 21 17 12 10 11 11 14 21
34 35 35 36 35 33 32 32 33 32 30 29 29 28 28 26 23 20 19 19 19 18 16 13 12 11 11 13 15 16 17 18 17 17 17 16 15 14 15 16 16 17 17 22 23 18 16 13 11 11 11 16
33 33 34 35 36 35 33 32 31 33 32 31 30 29 28 28 27 24 23 22 22 21 19 17 14 13 13 13 15 16 16 18 19 19 19 17 16 15 15 16 17 17 16 21 24 21 19 16 13 13 12 12
32 32 33 34 35 35 33 31 31 31 31 30 30 30 28 27 27 26 25 24 24 23 22 20 18 15 14 14 15 16 17 18 20 21 21 20 17 15 16 17 16 16 17 22 25 23 21 18 17 16 14 13
32 31 33 33 34 34 32 31 29 29 29 30 30 29 29 27 27 26 26 25 24 24 24 24 23 20 18 16 16 16 17 18 21 23 23 21 19 18 17 17 16 16 17 23 27 25 23 20 20 19 16 15
31 31 32 33 33 33 31 30 28 27 27 28 29 29 29 28 27 27 27 26 25 25 25 26 25 24 23 20 19 18 17 17 20 23 23 21 22 23 21 18 17 18 19 23 28 27 23 23 23 22 19 17
30 30 31 32 32 32 32 30 28 27 26 27 28 29 29 28 28 28 28 27 26 25 25 26 26 25 25 24 22 20 19 18 18 20 22 22 21 22 24 22 19 19 21 25 30 29 26 25 26 25 22 20
29 30 30 30 30 31 31 30 28 27 26 25 26 27 28 28 27 28 28 27 26 25 23 23 24 24 24 25 23 22 21 20 18 18 19 22 21 19 22 24 22 21 22 25 30 32 29 28 28 27 25 23
28 28 28 29 29 29 29 28 28 27 25 24 24 25 26 26 26 26 26 27 26 24 21 19 20 21 21 23 24 23 22 21 21 19 17 19 22 21 20 23 24 24 24 25 29 32 32 31 30 29 27 26
27 27 27 27 27 27 27 27 26 25 25 24 23 22 23 24 25 26 26 27 26 24 22 20 17 16 17 19 21 23 23 22 22 21 18 17 19 22 22 21 23 25 26 27 29 33 34 33 32 30 29 28
26 26 26 25 25 25 25 25 25 24 24 23 22 21 21 22 24 25 26 27 26 25 23 21 19 16 14 14 16 19 21 22 21 21 21 18 17 19 21 22 23 25 27 29 30 33 35 35 34 33 31 30
26 25 25 24 23 24 24 24 24 23 23 22 21 20 19 19 21 23 25 26 25 24 23 21 20 18 16 14 13 14 17 20 21 21 21 20 19 17 19 22 24 25 27 31 33 34 36 36 36 35 34 33
27 25 24 23 23 23 23 24 24 23 22 21 20 19 18 18 18 20 22 24 25 23 22 21 20 19 17 16 14 13 14 17 19 20 20 20 20 18 17 19 23 26 28 30 34 36 37 37 38 38 36 34
27 26 25 24 23 23 23 23 23 23 22 21 19 18 18 18 18 18 19 20 23 23 22 21 20 19 18 17 17 16 16 16 18 20 21 20 20 19 17 18 20 25 29 31 33 36 39 39 39 40 38 37
26 26 25 24 22 22 22 22 22 22 22 22 21 21 20 19 19 18 18 17 19 22 22 21 20 20 18 17 18 18 18 18 18 19 20 20 20 20 18 17 19 22 29 32 33 35 38 41 41 41 40 39
26 25 24 23 21 20 21 20 20 20 21 22 23 24 24 23 22 20 19 18 18 20 21 22 21 20 18 17 18 19 18 19 19 19 19 19 20 21 19 17 17 20 26 31 34 36 38 39 42 42 42 41
28 26 24 22 20 19 19 18 19 19 20 22 23 25 26 25 25 23 22 21 21 21 21 21 22 20 19 17 17 18 18 19 19 19 18 18 18 19 19 19 17 17 23 29 34 37 39 38 40 42 43 43
29 29 27 23 21 19 18 18 19 20 21 23 24 25 27 27 26 26 24 23 23 23 23 22 22 21 20 19 17 17 18 18 18 18 18 18 17 17 17 18 18 17 18 25 31 35 38 39 39 41 43 44
30 30 29 26 24 21 19 20 22 23 24 25 25 25 26 26 26 26 25 25 23 23 24 22 22 22 21 20 19 17 17 17 16 17 17 18 17 17 17 16 17 17 16 20 28 32 36 39 41 42 43 43
31 32 31 30 27 24 22 24 25 26 26 25 24 24 24 24 25 25 26 25 23 22 24 22 21 22 21 19 19 19 19 18 17 17 17 18 18 17 17 17 16 16 15 16 22 29 33 36 39 42 43 42
31 32 32 33 31 27 26 27 29 28 26 24 23 23 23 24 24 25 26 24 21 20 21 21 20 20 20 18 17 19 20 19 18 18 17 18 18 18 18 18 16 14 14 14 18 24 29 32 35 38 40 41
29 30 31 31 30 28 29 30 31 29 25 23 23 23 24 24 24 24 24 22 20 20 19 20 20 20 19 17 17 18 20 20 20 19 18 18 17 17 17 18 16 12 11 11 12 15 21 26 29 32 34 36
28 28 29 28 28 28 29 30 29 29 27 25 23 24 24 24 24 24 23 22 22 21 20 19 20 21 20 19 19 19 19 20 20 20 20 18 17 17 17 16 15 12 9 7 8 8 9 13 17 22 27 32
28 28 28 28 28 28 28 28 26 27 27 25 24 23 23 24 25 25 25 24 23 22 20 19 20 20 20 20 19 19 19 18 18 20 21 20 19 18 17 16 15 13 10 8 9 8 5 4 5 10 16 26
28 28 28 27 29 29 28 27 26 26 26 26 24 22 22 25 27 27 25 24 22 23 21 19 19 19 19 20 18 16 15 16 16 18 20 21 21 19 16 15 14 12 12 11 8 6 4 1 2 5 8 16
28 26 28 29 31 31 30 29 27 26 25 25 23 22 24 27 29 27 24 23 23 24 23 20 19 18 16 16 14 13 13 14 15 15 17 19 21 21 18 18 16 13 12 13 12 9 6 1 1 3 3 7
25 26 30 32 32 30 29 28 27 26 25 26 25 25 27 28 29 27 24 25 25 25 23 21 20 17 12 11 11 12 13 14 14 15 16 16 19 22 22 22 19 15 15 15 16 15 14 11 7 5 3 1
22 27 32 33 32 30 28 27 27 28 28 29 30 30 30 30 30 28 26 26 25 21 18 17 18 16 13 13 14 15 15 16 16 16 16 16 18 20 23 23 19 18 18 16 16 17 17 17 17 14 9 5
Wind_Direction
48 47 46 43 41 37 34 35 38 36 33 31 24 14 11 6 356 349 346 351 340 310 294 275 261 254 245 246 248 244 244 246 245 251 255 258 256 238 234 229 213 202 190 188 202 216 216 197 183 195 190 191
45 45 45 44 43 41 37 33 34 36 34 32 29 20 12 11 10 2 355 352 346 339 325 297 280 265 255 255 250 245 245 248 246 247 251 258 258 248 247 240 221 207 194 190 199 208 210 178 164 189 192 191
38 39 41 42 41 41 40 37 34 33 33 31 31 27 20 13 11 8 3 0 354 346 338 324 300 273 266 263 251 248 247 245 246 247 250 254 255 252 254 244 227 212 197 194 198 198 204 184 163 179 191 193
31 32 34 36 36 36 37 36 34 32 31 29 28 28 25 21 15 13 8 5 2 356 344 334 318 285 271 268 263 259 253 247 245 247 247 248 248 254 258 247 235 224 205 199 198 196 199 188 172 175 189 195
28 27 27 29 29 29 29 29 29 30 30 28 26 24 23 22 19 16 11 7 5 2 356 344 330 309 287 277 277 269 257 250 249 250 248 247 245 252 262 255 243 232 213 199 196 198 196 188 182 175 181 193
27 25 22 23 22 23 23 23 23 23 24 24 23 22 21 21 19 16 12 8 5 2 1 355 343 328 310 294 285 278 269 256 252 255 251 247 247 248 254 260 253 243 230 206 198 201 197 194 196 183 178 186
24 21 19 17 17 19 18 19 19 17 17 17 18 18 18 19 17 16 12 8 4 1 359 357 352 343 329 313 300 287 280 266 255 259 254 244 246 248 246 255 254 245 234 210 200 203 201 200 201 194 189 188
19 16 14 13 12 14 15 15 14 12 11 11 11 11 12 12 12 11 10 6 2 360 357 355 352 348 341 330 324 310 292 278 264 263 261 248 243 244 242 247 247 242 231 209 202 202 204 206 202 200 200 198
15 11 9 9 8 8 10 10 9 8 7 5 4 4 5 4 4 4 3 1 359 359 356 353 349 346 344 337 333 329 314 297 280 269 265 260 250 242 239 244 244 240 230 214 209 205 206 209 205 204 207 205
11 9 6 4 3 3 5 6 4 4 3 1 358 358 358 357 356 357 356 356 355 354 352 349 347 344 341 336 332 331 326 316 301 282 270 270 266 253 244 243 243 239 231 222 216 211 210 210 208 208 208 209
9 6 4 1 0 360 0 0 359 359 358 357 355 353 352 351 350 349 350 349 348 349 348 344 341 339 336 333 329 326 326 321 315 302 281 274 274 268 255 246 242 237 231 227 221 217 215 212 211 212 211 211
7 4 1 359 357 357 356 355 354 353 352 351 350 349 348 346 344 342 342 342 342 342 343 340 334 330 328 326 323 320 320 318 314 313 302 281 272 271 265 252 243 237 230 227 225 222 219 215 213 214 216 213
4 2 360 357 355 353 351 350 348 346 344 344 343 344 344 342 339 337 336 336 336 335 336 337 333 326 319 314 313 311 311 312 311 310 309 296 278 273 270 257 244 237 231 227 226 224 221 219 216 217 219 216
360 359 357 356 353 350 347 345 342 339 338 336 335 337 338 338 335 333 332 332 331 329 329 331 332 330 322 310 301 299 300 304 307 306 306 304 292 279 274 264 247 235 230 228 228 225 222 222 220 220 222 221
353 354 354 353 350 347 346 343 338 336 333 330 329 329 329 330 331 329 327 328 327 324 323 324 326 328 328 322 308 294 290 292 298 302 302 304 302 290 279 272 255 239 230 227 229 227 223 223 222 220 222 224
347 345 346 347 346 345 343 342 339 336 332 330 328 326 325 324 324 322 319 321 322 320 319 319 321 324 326 327 324 312 298 290 290 295 297 299 302 297 287 279 264 247 235 228 228 228 225 224 223 222 222 224
342 338 338 339 339 340 339 339 339 338 333 330 329 329 330 329 326 322 315 314 315 313 313 315 317 320 323 326 327 323 316 304 293 291 294 296 298 299 295 287 274 257 244 234 229 227 226 224 224 222 222 223
340 332 329 331 331 332 334 334 334 336 332 328 327 327 328 329 329 329 323 318 314 309 306 310 312 315 319 323 325 325 323 318 309 298 296 298 299 300 301 294 285 269 253 242 234 229 226 225 224 223 222 223
343 333 322 321 324 326 327 328 328 330 328 325 326 326 325 324 324 326 327 325 322 314 307 306 307 310 313 316 321 324 326 323 319 312 304 302 301 301 303 301 294 279 263 250 239 232 228 225 224 223 222 222
342 338 326 316 315 319 320 321 323 323 322 322 324 323 323 322 321 320 321 321 320 318 313 308 305 306 308 309 313 318 322 323 322 319 313 307 304 302 302 303 301 289 271 256 244 236 232 228 224 223 222 222
339 338 334 322 313 313 314 315 319 320 320 321 322 321 320 320 320 319 318 316 313 312 311 309 305 303 306 306 307 311 314 317 320 320 317 311 306 302 301 301 300 296 281 264 251 240 235 233 228 225 223 222
341 339 337 330 318 309 310 315 317 319 319 320 320 318 318 318 318 318 317 313 308 305 304 303 301 299 302 304 303 305 306 307 311 315 316 313 308 303 300 299 298 297 292 276 259 245 238 235 230 228 225 223
345 342 340 336 325 308 307 315 317 316 316 316 317 316 317 318 318 318 317 312 304 300 299 298 297 295 296 301 302 301 301 300 300 305 308 310 310 304 298 298 297 296 296 287 267 251 242 237 233 229 226 223
347 345 343 340 331 313 309 317 317 314 313 313 315 316 319 321 319 317 314 309 303 299 299 297 298 297 294 297 301 301 299 296 293 295 299 304 306 303 298 296 296 298 298 292 276 259 247 241 237 232 227 224
347 345 341 340 333 320 315 318 316 312 311 313 314 315 319 321 320 315 309 306 306 302 298 298 301 300 297 295 297 297 296 295 291 286 289 296 298 299 297 293 295 303 303 291 278 264 249 241 239 234 229 226
341 337 334 332 329 322 318 317 314 310 309 311 313 315 316 319 319 313 304 302 304 302 299 300 302 300 298 295 295 295 294 296 292 283 282 286 288 291 292 288 290 298 299 272 256 258 248 238 237 233 230 229
335 330 328 325 323 320 317 316 315 312 308 306 307 311 313 316 317 311 302 297 298 299 297 299 301 300 298 296 296 297 294 296 295 287 282 280 280 283 284 285 288 290 284 263 257 259 244 220 225 231 229 230
336 330 328 326 324 321 317 315 315 315 313 307 302 304 310 312 313 309 301 294 292 294 293 294 296 296 297 298 297 298 299 300 300 294 288 283 279 276 273 278 284 283 275 266 259 251 240 193 201 234 223 224
340 336 334 331 327 323 319 317 316 316 314 308 301 301 306 307 307 305 296 287 287 290 290 289 291 292 297 302 301 304 306 303 302 297 291 285 280 274 268 271 275 273 268 264 255 239 241 240 178 251 230 211
340 337 335 331 324 318 314 312 310 309 307 304 300 299 301 301 302 299 287 282 283 285 286 284 285 287 292 302 307 309 308 303 301 297 293 288 282 276 271 271 268 263 261 263 260 248 245 251 252 276 297 214
333 332 332 327 320 312 306 301 298 300 300 299 297 296 296 295 296 293 283 279 279 278 278 275 276 278 283 293 301 307 307 304 303 302 301 297 290 282 275 270 262 259 262 259 259 254 250 256 259 259 257 252
Height
815 815 814 814 813 811 811 810 809 810 810 810 811 811 811 811 810 811 811 812 812 813 814 815 815 815 816 817 818 819 819 819 820 821 822 822 823 823 824 825 825 826 826 827 828 829 830 830 831 833 835 837
816 816 815 814 813 812 812 812 811 811 812 811 811 811 811 811 811 810 811 811 811 812 812 813 814 814 815 816 817 818 818 818 819 819 820 822 822 822 823 824 825 825 825 826 827 828 829 830 830 832 835 837
817 816 815 814 813 813 813 814 813 813 813 812 811 811 811 811 810 810 810 810 811 811 812 813 813 814 815 815 816 817 817 818 818 818 819 820 821 822 822 823 824 825 825 825 826 827 828 829 830 831 834 836
818 817 816 815 815 815 815 815 815 814 814 813 812 811 811 810 810 810 810 810 810 811 811 812 812 813 813 814 815 816 817 817 817 817 818 819 820 821 821 822 823 824 825 824 825 826 827 829 829 830 833 836
819 819 818 817 817 817 816 816 815 815 814 813 813 812 812 811 810 809 809 810 810 811 811 811 811 812 812 813 814 815 816 816 817 817 817 817 818 819 820 821 822 823 824 824 824 825 826 828 829 829 831 835
821 821 820 820 819 818 818 817 816 815 815 814 814 814 813 812 811 810 810 810 810 811 811 811 811 811 811 812 813 814 814 815 816 816 816 816 817 818 818 819 820 821 823 824 823 824 825 827 829 829 829 833
823 822 821 821 820 820 819 818 817 816 816 816 815 815 814 813 812 811 811 810 811 811 811 811 811 811 811 811 812 812 813 814 815 815 816 816 815 816 817 817 818 819 821 822 822 823 824 826 828 829 829 830
823 822 822 821 821 820 820 819 818 818 817 817 816 816 814 813 813 812 811 811 811 811 810 810 810 811 810 810 810 810 811 812 813 814 814 815 815 814 814 814 816 818 819 820 820 821 823 824 826 828 828 829
823 823 822 821 821 820 820 819 819 818 818 817 816 816 814 814 813 812 812 812 811 811 810 810 809 810 810 810 810 810 810 811 811 812 813 814 814 813 813 813 814 816 817 818 819 820 822 823 825 826 828 829
824 823 822 821 821 820 819 819 819 818 817 817 816 815 814 814 813 812 811 812 812 811 810 809 809 809 809 809 810 810 809 810 810 810 811 812 812 812 811 811 812 813 814 815 816 818 820 821 823 824 826 827
825 824 823 822 821 820 819 818 818 817 816 816 815 815 814 813 813 812 812 812 811 811 811 810 810 809 808 809 809 809 809 809 809 809 809 810 810 811 811 810 810 811 812 813 814 816 818 819 821 822 823 825
826 826 824 823 822 821 820 819 818 817 816 816 815 815 814 814 813 813 813 812 811 810 810 811 810 810 809 808 808 809 808 808 808 808 808 808 809 809 811 810 809 809 810 811 811 812 815 817 818 819 821 823
827 826 826 824 823 822 821 820 818 817 816 815 815 814 814 814 814 813 813 812 811 810 809 809 809 809 809 808 808 808 808 808 807 807 807 807 807 807 808 810 809 808 807 808 809 810 812 814 816 817 818 820
827 826 825 825 824 823 822 821 820 818 817 815 814 813 813 813 813 813 812 811 810 809 808 808 807 807 808 807 807 807 807 807 807 806 806 805 805 805 806 807 808 808 807 806 806 807 809 811 813 815 816 818
828 826 825 825 824 823 823 822 821 819 818 816 815 813 812 812 812 812 811 811 810 809 808 807 807 806 806 806 806 806 805 805 805 805 805 805 804 804 804 805 806 807 807 805 804 805 806 808 810 812 814 815
827 826 825 824 823 823 822 822 821 820 818 817 815 814 812 811 811 810 810 810 809 809 808 807 806 805 804 803 803 803 804 803 803 803 804 804 803 803 802 802 803 804 805 804 803 803 803 805 807 809 811 813
825 825 825 823 823 822 821 821 820 819 818 817 816 814 813 811 810 809 808 808 808 808 807 806 805 804 803 802 801 801 801 801 801 801 801 801 801 801 800 800 800 801 802 802 803 802 801 802 804 806 808 809
824 824 823 822 822 821 820 819 819 818 817 816 815 814 812 811 809 808 807 806 806 806 805 805 804 803 801 800 799 798 799 799 799 799 798 798 798 798 798 798 798 799 799 799 800 801 800 800 801 803 804 806
825 823 822 822 820 820 819 818 817 817 816 815 813 812 811 810 808 806 805 804 804 804 804 803 802 801 800 799 798 797 797 797 797 797 796 796 795 795 795 795 796 796 796 797 797 798 798 798 799 799 801 803
824 823 821 821 820 819 818 817 816 815 814 813 812 811 809 808 806 804 802 802 802 802 802 801 800 800 799 798 796 795 795 795 795 795 795 794 794 793 793 793 793 794 794 795 794 794 795 796 797 797 798 799
823 821 820 819 818 817 816 815 814 813 812 811 810 808 807 805 803 801 800 800 800 800 799 799 798 797 797 796 795 794 794 794 794 794 793 793 793 792 791 791 791 791 792 792 792 792 792 793 795 795 796 796
821 819 818 816 816 815 814 813 812 811 809 808 807 806 805 803 801 799 798 798 798 798 798 797 796 795 794 793 793 792 792 793 793 793 792 791 791 791 790 789 789 789 789 790 790 790 790 790 791 792 793 794
820 818 816 814 813 813 811 810 809 808 806 805 804 802 801 800 798 796 795 796 796 796 795 794 793 792 791 791 790 790 790 791 791 791 791 790 790 789 789 788 787 787 787 788 788 788 788 788 788 788 790 791
818 816 814 813 811 810 809 808 806 804 803 802 800 799 798 797 795 794 794 794 794 793 792 791 790 789 788 788 788 788 788 789 789 789 789 788 788 787 787 786 786 785 785 785 785 785 786 786 786 786 787 788
818 816 814 813 811 810 808 806 804 802 801 799 798 797 796 795 794 793 792 792 791 790 789 788 787 786 786 786 786 786 786 786 787 787 786 786 786 785 784 784 784 784 784 784 783 783 783 783 783 784 785 785
819 817 816 814 812 810 808 806 803 801 800 798 796 795 795 794 792 792 791 790 789 788 787 786 785 785 784 784 784 784 783 784 784 784 784 784 783 783 782 782 782 783 782 782 781 781 781 782 782 782 782 783
818 817 816 814 812 810 807 805 802 800 799 797 795 794 793 792 791 790 789 788 788 786 785 784 783 783 782 782 782 781 781 781 781 781 782 782 781 781 780 779 779 780 780 779 779 780 780 779 779 780 780 779
817 816 814 813 811 809 806 803 801 799 797 796 794 793 792 791 789 788 786 786 785 784 783 782 781 780 780 780 780 779 778 778 778 779 779 780 779 779 778 777 777 778 778 778 778 778 777 776 776 775 774 774
815 814 812 810 808 806 803 800 797 796 794 793 792 791 790 789 788 786 785 784 783 782 781 780 779 778 777 777 777 777 776 776 776 776 776 777 777 777 776 775 775 775 776 776 776 776 775 774 774 771 769 770
813 812 810 809 806 804 801 798 796 794 792 791 790 788 787 786 785 784 783 782 781 780 779 778 776 776 775 775 775 775 774 774 773 774 774 774 774 774 774 774 773 773 773 774 774 774 773 772 772 771 771 769
811 810 809 807 805 803 800 797 795 793 791 789 787 785 784 782 781 781 780 778 778 777 776 775 774 773 773 772 773 773 772 772 771 771 771 771 771 771 771 772 771 770 771 772 771 771 770 770 770 771 772 770